CW7261 Weather Reports


time (UTC)temp
F
wind
direction
speed
knots
gust
knots
rain 1hr
in
rain 24hr
in
rain mn
in
humidity
%
barometer
mb
20260505032100 67 334 4.3 7.8 0.00 0.00 0.00 39 1001.0
20260505031601 67 329 4.3 8.7 0.00 0.00 0.00 38 1004.0
20260505031100 68 309 5.2 10.4 0.00 0.00 0.00 37 994.4
20260505030600 68 320 5.2 10.4 0.00 0.00 0.00 36 1010.1
20260505030100 69 325 5.2 12.2 0.00 0.00 0.00 36 1003.8
20260505025603 69 295 5.2 13.0 0.00 0.00 0.00 35 994.0
20260505025051 69 355 5.2 13.0 0.00 0.00 0.00 34 977.8
20260505024536 70 315 6.1 15.6 0.00 0.00 0.00 33 1009.8
20260505024037 71 328 6.1 15.6 0.00 0.00 0.00 32 995.6
20260505023536 71 309 6.1 13.9 0.00 0.00 0.00 31 974.9
20260505023037 72 324 6.1 13.0 0.00 0.00 0.00 31 975.9
20260505022536 73 342 6.1 12.2 0.00 0.00 0.00 31 993.6
20260505022036 73 340 6.1 12.2 0.00 0.00 0.00 30 971.6
20260505021536 74 323 5.2 14.8 0.00 0.00 0.00 29 984.6
20260505021310 74 279 5.2 14.8 0.00 0.00 0.00 30 998.2
20260505020538 74 318 6.1 13.9 0.00 0.00 0.00 30 965.8
20260505020038 74 318 7.0 15.6 0.00 0.00 0.00 29 938.1
20260505015537 75 323 7.0 16.5 0.00 0.00 0.00 29 961.9
20260505015308 75 325 7.0 19.1 0.00 0.00 0.00 28 909.4
20260505014536 76 338 6.1 19.1 0.00 0.00 0.00 28 908.7
20260505014036 76 317 6.1 14.8 0.00 0.00 0.00 28 904.7
20260505013536 77 340 6.1 14.8 0.00 0.00 0.00 28 884.4
20260505013036 77 20 6.1 12.2 0.00 0.00 0.00 28 900.7
20260505012537 77 351 6.1 13.9 0.00 0.00 0.00 28 892.5
20260505012039 77 305 7.8 16.5 0.00 0.00 0.00 28 890.6
20260505011536 78 2 7.8 16.5 0.00 0.00 0.00 28 890.7
20260505011035 78 300 7.0 13.9 0.00 0.00 0.00 28 854.1
20260505010812 79 313 6.1 14.8 0.00 0.00 0.00 28 897.3
20260505010307 79 307 7.0 18.2 0.00 0.00 0.00 27 978.1
20260505005531 80 330 7.0 18.2 0.00 0.00 0.00 26 981.8
20260505005026 80 329 6.1 13.9 0.00 0.00 0.00 26 982.5
20260505004526 80 320 5.2 13.0 0.00 0.00 0.00 25 1000.2
20260505004025 80 353 6.1 13.0 0.00 0.00 0.00 24 997.0
20260505003527 81 47 6.1 13.0 0.00 0.00 0.00 22 981.4
20260505003026 80 350 6.1 14.8 0.00 0.00 0.00 23 1000.3
20260505002525 81 322 7.0 14.8 0.00 0.00 0.00 22 1009.5
20260505002022 81 332 5.2 13.9 0.00 0.00 0.00 21 1007.9
20260505001522 81 46 5.2 11.3 0.00 0.00 0.00 23 991.9
20260505001022 81 18 6.1 11.3 0.00 0.00 0.00 22 997.2
20260505000520 80 324 6.1 14.8 0.00 0.00 0.00 22 1009.7
20260505000019 80 354 5.2 14.8 0.00 0.00 0.00 22 1003.5
20260504235520 80 333 4.3 10.4 0.00 0.00 0.00 23 1009.6
20260504235017 79 319 3.5 9.6 0.00 0.00 0.00 23 1000.5
20260504234520 78 306 3.5 10.4 0.00 0.00 0.00 23 1003.3
20260504234020 79 26 3.5 12.2 0.00 0.00 0.00 23 1009.7
20260504233515 79 355 2.6 12.2 0.00 0.00 0.00 23 1009.6
20260504233009 78 110 3.5 8.7 0.00 0.00 0.00 24 1009.7
20260504232506 78 354 3.5 8.7 0.00 0.00 0.00 24 1009.8
20260504232003 78 322 4.3 9.6 0.00 0.00 0.00 26 1010.0
20260504231504 78 52 4.3 10.4 0.00 0.00 0.00 24 1009.8
20260504231234 79 3 3.5 10.4 0.00 0.00 0.00 23 1009.8
20260504230504 80 45 3.5 10.4 0.00 0.00 0.00 23 1009.8
20260504230001 79 354 3.5 9.6 0.00 0.00 0.00 23 1009.8
20260504225502 79 357 3.5 11.3 0.00 0.00 0.00 23 1010.0
20260504225004 78 345 3.5 11.3 0.00 0.00 0.00 24 1009.8
20260504224459 78 38 3.5 11.3 0.00 0.00 0.00 24 1010.0
20260504223959 79 342 3.5 13.0 0.00 0.00 0.00 24 1010.2
20260504223459 79 52 4.3 13.0 0.00 0.00 0.00 27 1010.1
20260504222950 79 9 5.2 12.2 0.00 0.00 0.00 24 1010.2
20260504222447 80 329 4.3 12.2 0.00 0.00 0.00 23 1010.2
20260504221948 80 82 3.5 10.4 0.00 0.00 0.00 24 1010.1
20260504221447 80 86 3.5 9.6 0.00 0.00 0.00 25 1010.3
20260504221218 80 74 3.5 9.6 0.00 0.00 0.00 26 1010.5
20260504220447 79 332 3.5 9.6 0.00 0.00 0.00 24 1010.4
20260504215948 80 23 3.5 12.2 0.00 0.00 0.00 24 1010.5
20260504215447 80 59 3.5 13.0 0.00 0.00 0.00 24 1010.6
20260504214949 80 55 3.5 13.0 0.00 0.00 0.00 24 1010.6
20260504214441 80 0 3.5 12.2 0.00 0.00 0.00 25 1010.5
20260504213929 79 45 4.3 12.2 0.00 0.00 0.00 24 1010.5
20260504213423 79 343 3.5 8.7 0.00 0.00 0.00 25 1010.5
20260504212923 79 48 4.3 9.6 0.00 0.00 0.00 25 1010.6
20260504212425 79 53 5.2 14.8 0.00 0.00 0.00 26 1010.7
20260504211922 79 358 5.2 14.8 0.00 0.00 0.00 25 1010.7
20260504211419 80 355 3.5 8.7 0.00 0.00 0.00 24 1010.7
20260504210919 79 328 2.6 7.0 0.00 0.00 0.00 24 1010.7
20260504210421 79 354 3.5 10.4 0.00 0.00 0.00 25 1010.7
20260504205920 79 20 3.5 10.4 0.00 0.00 0.00 25 1010.8
20260504205417 79 76 3.5 7.8 0.00 0.00 0.00 23 1010.8
20260504204915 79 353 3.5 7.8 0.00 0.00 0.00 24 1010.8
20260504204415 79 20 2.6 9.6 0.00 0.00 0.00 26 1011.0
20260504203915 78 91 2.6 9.6 0.00 0.00 0.00 26 1011.0
20260504203647 78 29 2.6 6.1 0.00 0.00 0.00 25 1011.0
20260504202905 78 341 3.5 9.6 0.00 0.00 0.00 27 1011.1
20260504202355 78 353 3.5 9.6 0.00 0.00 0.00 27 1011.1
20260504201846 77 30 3.5 11.3 0.00 0.00 0.00 27 1011.0
20260504201335 78 16 4.3 11.3 0.00 0.00 0.00 26 1011.2
20260504200825 78 35 4.3 9.6 0.00 0.00 0.00 28 1011.1
20260504200315 78 7 2.6 9.6 0.00 0.00 0.00 27 1011.1
20260504195810 78 65 2.6 7.0 0.00 0.00 0.00 30 1011.2
20260504195304 77 40 3.5 9.6 0.00 0.00 0.00 29 1011.2
20260504194757 77 336 4.3 10.4 0.00 0.00 0.00 28 1011.2
20260504194251 77 31 4.3 12.2 0.00 0.00 0.00 27 1011.3
20260504193745 78 328 3.5 12.2 0.00 0.00 0.00 28 1011.2
20260504193234 78 336 3.5 8.7 0.00 0.00 0.00 28 1010.8
20260504192725 78 73 4.3 8.7 0.00 0.00 0.00 26 1011.3
20260504192214 78 51 3.5 7.8 0.00 0.00 0.00 27 1011.4
20260504191709 78 32 3.5 8.7 0.00 0.00 0.00 26 1011.4
20260504191203 77 64 3.5 8.7 0.00 0.00 0.00 28 1011.4
20260504190927 77 352 2.6 7.0 0.00 0.00 0.00 28 1011.5
20260504190151 77 39 2.6 7.0 0.00 0.00 0.00 30 1011.6
20260504185644 76 34 2.6 7.8 0.00 0.00 0.00 29 1011.3
20260504185411 77 27 3.5 9.6 0.00 0.00 0.00 29 1011.7
20260504184904 77 78 2.6 9.6 0.00 0.00 0.00 29 1011.9
20260504184741 76 26 3.5 7.8 0.00 0.00 0.00 30 1011.9
20260504183903 76 28 3.5 8.7 0.00 0.00 0.00 31 1011.9
20260504183132 76 348 4.3 8.7 0.00 0.00 0.00 31 1011.9
20260504182633 75 325 4.3 9.6 0.00 0.00 0.00 31 1011.9
20260504182403 75 92 3.5 9.6 0.00 0.00 0.00 31 1012.0
20260504181633 75 5 3.5 7.0 0.00 0.00 0.00 32 1012.0
20260504181133 74 334 3.5 8.7 0.00 0.00 0.00 33 1011.9
20260504180633 74 47 4.3 9.6 0.00 0.00 0.00 32 1011.9
20260504180133 74 337 3.5 9.6 0.00 0.00 0.00 32 1011.9
20260504175636 74 336 2.6 7.8 0.00 0.00 0.00 33 1011.9
20260504175136 74 323 3.5 7.8 0.00 0.00 0.00 34 1012.0
20260504174857 74 338 3.5 7.8 0.00 0.00 0.00 33 1012.0
20260504174125 74 1 2.6 7.8 0.00 0.00 0.00 32 1012.0
20260504173624 73 76 2.6 7.8 0.00 0.00 0.00 34 1012.0
20260504173124 73 49 2.6 7.8 0.00 0.00 0.00 33 1012.0
20260504172855 72 92 2.6 7.8 0.00 0.00 0.00 34 1012.0
20260504172127 72 34 1.7 7.0 0.00 0.00 0.00 35 1012.1
20260504171623 71 4 1.7 4.3 0.00 0.00 0.00 35 1012.0
20260504171126 70 14 2.6 7.0 0.00 0.00 0.00 36 1012.0
20260504170616 70 17 2.6 7.0 0.00 0.00 0.00 35 1012.0
20260504170348 69 318 1.7 6.1 0.00 0.00 0.00 34 1012.0
20260504160106 63 0 0.9 3.5 0.00 0.00 0.00 46 1012.0
20260504151008 57 243 0.9 1.7 0.00 0.00 0.00 56 1012.1
20260504150506 56 243 0.9 1.7 0.00 0.00 0.00 56 1012.1
20260504140955 54 222 1.7 3.5 0.00 0.00 0.00 55 1012.1
20260504140448 54 184 1.7 3.5 0.00 0.00 0.00 56 1012.1
20260504130426 55 174 0.0 0.0 0.00 0.00 0.00 52 1011.6
20260504120110 57 132 0.9 3.5 0.00 0.00 0.00 48 1011.5
20260504110335 57 109 0.9 1.7 0.00 0.00 0.00 48 1011.9
20260504100158 58 84 1.7 3.5 0.00 0.00 0.00 48 1012.2
20260504081948 59 307 0.0 0.0 0.00 0.00 0.00 45 1012.2
20260504081449 59 105 0.0 0.0 0.00 0.00 0.00 46 1012.3
20260504080950 60 100 0.0 2.6 0.00 0.00 0.00 45 1012.3
20260504080447 60 109 0.9 3.5 0.00 0.00 0.00 44 1012.3
20260504070340 60 98 0.0 0.0 0.00 0.00 0.00 45 1012.4
20260504060234 62 325 0.9 3.5 0.00 0.00 0.00 41 1012.4
20260504050555 63 83 0.9 2.6 0.00 0.00 0.00 40 1012.4
20260504045536 64 85 0.0 2.6 0.00 0.00 0.00 40 1012.3
20260504045025 64 86 0.0 1.7 0.00 0.00 0.00 39 1012.3
20260504044519 65 76 0.0 0.9 0.00 0.00 0.00 37 1012.3
20260504044014 65 74 0.0 0.9 0.00 0.00 0.00 37 1012.3
20260504043503 66 43 0.0 0.9 0.00 0.00 0.00 36 1012.2
20260504042953 66 40 0.0 0.9 0.00 0.00 0.00 35 1012.2
20260504042448 67 40 0.0 0.9 0.00 0.00 0.00 36 1012.1
20260504041941 67 40 0.0 0.9 0.00 0.00 0.00 34 1012.1
20260504041432 67 55 0.0 0.9 0.00 0.00 0.00 33 1012.0
20260504040928 68 39 0.0 0.9 0.00 0.00 0.00 33 1012.0
20260504040429 68 40 0.0 2.6 0.00 0.00 0.00 33 983.8
20260504035928 69 42 0.0 2.6 0.00 0.00 0.00 33 1011.7
20260504035428 69 55 0.0 2.6 0.00 0.00 0.00 33 1011.7
20260504034929 69 34 0.9 3.5 0.00 0.00 0.00 32 986.5
20260504034428 70 47 1.7 4.3 0.00 0.00 0.00 32 989.8
20260504034159 70 68 1.7 6.1 0.00 0.00 0.00 32 1008.5
20260504033427 71 357 1.7 7.8 0.00 0.00 0.00 31 992.8
20260504033157 71 39 1.7 7.8 0.00 0.00 0.00 30 1008.2